Weather History for KUAO - August, 2013

Change the Weather History Date:

Friday, August 23, 2013

  Actual Average Record
Temperature  
Mean Temperature 65 °F -  
Max Temperature 75 °F - 88 °F (2014)
Min Temperature 57 °F - 48 °F (2010)
Degree Days  
Heating Degree Days 0    
Month to date heating degree days 3  
Since 1 June heating degree days 88  
Since 1 July heating degree days 8  
Cooling Degree Days 1    
Month to date cooling degree days 114  
Year to date cooling degree days 322  
Since 1 June cooling degree days 307  
Growing Degree Days 15 (Base 50)    
Moisture  
Dew Point 56 °F    
Average Humidity 75    
Maximum Humidity 97    
Minimum Humidity 53    
Precipitation  
Precipitation 0.03 in - 0.14 in (2004)
Month to date precipitation 0.17  
Year to date precipitation 13.14  
Sea Level Pressure  
Sea Level Pressure 29.92 in    
Wind  
Wind Speed 4 mph (SSW)    
Max Wind Speed 8 mph    
Max Gust Speed 13 mph    
Visibility 10 miles    
Events Rain    
T = Trace of Precipitation, MM = Missing Value Source: NWS Daily Summary

Daily Weather History Graph

Daily Weather History Graph

Search for Another Location

Airport or City:

Trip Planner

Search our weather history database for the weather conditions in past years. The results will help you decide how hot, cold, wet, or windy it might be!

Date:

Astronomy

Aug. 23, 2013 Rise Set
Actual Time 6:22 AM PDT 8:03 PM PDT
Civil Twilight 5:51 AM PDT 8:35 PM PDT
Nautical Twilight 5:13 AM PDT 9:12 PM PDT
Astronomical Twilight 4:31 AM PDT 9:53 PM PDT
Moon 9:13 PM PDT (8/23) 9:35 AM PDT (8/23)
Length of Visible Light 14h 43m
Length of Day
13h 41m
Waning Gibbous, 91% of the Moon is Illuminated
Aug 23
Waning Gibbous
Aug 28
Last Quarter
Sep 5
New
Sep 12
First Quarter
Sep 19
Full

Hourly Weather History & Observations

Time (PDT) Temp. Dew Point Humidity Pressure Visibility Wind Dir Wind Speed Gust Speed Precip Events Conditions
12:53 AM 61.0 °F 57.9 °F 90% 29.92 in 9.0 mi Calm Calm - 0.03 in Rain Light Rain
1:53 AM 61.0 °F 59.0 °F 93% 29.91 in 10.0 mi South 5.8 mph - 0.02 in Rain Light Rain
2:53 AM 59.0 °F 57.9 °F 96% 29.92 in 10.0 mi SW 4.6 mph - 0.01 in   Mostly Cloudy
3:53 AM 59.0 °F 55.9 °F 90% 29.91 in 10.0 mi SSW 3.5 mph - N/A   Clear
4:53 AM 57.9 °F 55.9 °F 93% 29.91 in 10.0 mi Calm Calm - N/A   Clear
5:18 AM 57.2 °F 57.2 °F 100% 29.92 in 10.0 mi SSE 3.5 mph - N/A   Mostly Cloudy
5:53 AM 57.9 °F 55.9 °F 93% 29.91 in 10.0 mi SSE 5.8 mph - N/A   Overcast
6:53 AM 57.9 °F 55.9 °F 93% 29.92 in 10.0 mi SSE 3.5 mph - N/A   Mostly Cloudy
7:01 AM 57.2 °F 55.4 °F 94% 29.93 in 10.0 mi South 4.6 mph - N/A   Scattered Clouds
7:46 AM 59.0 °F 55.4 °F 88% 29.94 in 10.0 mi SSW 4.6 mph - N/A   Mostly Cloudy
7:53 AM 60.1 °F 55.9 °F 86% 29.94 in 10.0 mi SSW 4.6 mph - N/A   Mostly Cloudy
8:21 AM 59.0 °F 55.4 °F 88% 29.95 in 10.0 mi South 5.8 mph - N/A   Mostly Cloudy
8:53 AM 60.1 °F 57.0 °F 90% 29.95 in 10.0 mi South 5.8 mph - N/A   Overcast
9:40 AM 62.6 °F 57.2 °F 82% 29.95 in 10.0 mi SSW 3.5 mph - N/A   Overcast
9:53 AM 63.0 °F 57.0 °F 81% 29.95 in 10.0 mi SW 4.6 mph - N/A   Overcast
10:53 AM 63.0 °F 57.0 °F 81% 29.96 in 10.0 mi WSW 4.6 mph - N/A   Overcast
11:53 AM 64.9 °F 57.0 °F 75% 29.96 in 10.0 mi Calm Calm - N/A   Overcast
12:53 PM 64.9 °F 57.0 °F 75% 29.96 in 10.0 mi Variable 3.5 mph - N/A   Overcast
1:53 PM 68.0 °F 55.9 °F 65% 29.95 in 10.0 mi Calm Calm - N/A   Mostly Cloudy
2:09 PM 69.8 °F 55.4 °F 60% 29.95 in 10.0 mi Calm Calm - N/A   Scattered Clouds
2:53 PM 71.1 °F 55.9 °F 59% 29.93 in 10.0 mi Variable 3.5 mph - N/A   Mostly Cloudy
3:53 PM 72.0 °F 55.0 °F 55% 29.92 in 10.0 mi South 3.5 mph - N/A   Partly Cloudy
4:53 PM 73.0 °F 55.9 °F 55% 29.91 in 10.0 mi East 5.8 mph - N/A   Mostly Cloudy
5:53 PM 73.9 °F 55.9 °F 53% 29.90 in 10.0 mi Variable 6.9 mph - N/A   Mostly Cloudy
6:53 PM 73.9 °F 55.9 °F 53% 29.88 in 10.0 mi South 4.6 mph - N/A   Mostly Cloudy
7:53 PM 71.1 °F 55.9 °F 59% 29.88 in 10.0 mi SW 5.8 mph - N/A   Scattered Clouds
8:53 PM 66.0 °F 55.0 °F 68% 29.89 in 10.0 mi West 3.5 mph - N/A   Clear
9:53 PM 64.0 °F 55.0 °F 73% 29.91 in 10.0 mi Variable 3.5 mph - N/A   Partly Cloudy
10:53 PM 62.1 °F 55.0 °F 78% 29.91 in 10.0 mi South 3.5 mph - N/A   Mostly Cloudy
11:53 PM 60.1 °F 55.0 °F 83% 29.91 in 10.0 mi SSW 4.6 mph - N/A   Scattered Clouds